Twin Bridges, CA

9:50 AM PST on February 08, 2016 (GMT -0800)
Lake Tahoe

Weather History for KTVL - March, 2013

Change the Weather History Date:

Sunday, March 10, 2013

  Actual Average Record
Temperature  
Mean Temperature 33 °F 35 °F  
Max Temperature 51 °F 48 °F 64 °F (2015)
Min Temperature 14 °F 22 °F -2 °F (2002)
Degree Days  
Heating Degree Days 32 30  
Month to date heating degree days 302 312  
Since 1 July heating degree days 5320 5549  
Cooling Degree Days 0 0  
Month to date cooling degree days 0 0  
Year to date cooling degree days 0 0  
Moisture  
Dew Point 14 °F    
Average Humidity 51    
Maximum Humidity 80    
Minimum Humidity 21    
Precipitation  
Precipitation 0.00 in - 1.15 in (1954)
Month to date precipitation 0.48  
Year to date precipitation 1.38  
Sea Level Pressure  
Sea Level Pressure 30.39 in    
Wind  
Wind Speed 3 mph (ESE)    
Max Wind Speed 12 mph    
Max Gust Speed 14 mph    
Visibility 10 miles    
Events      
T = Trace of Precipitation, MM = Missing Value Source: NWS Daily Summary

Daily Weather History Graph

Daily Weather History Graph

Search for Another Location

Airport or City:

Trip Planner

Search our weather history database for the weather conditions in past years. The results will help you decide how hot, cold, wet, or windy it might be!

Date:

Astronomy

Mar. 10, 2013 Rise Set
Actual Time 7:18 AM PDT 7:02 PM PDT
Civil Twilight 6:51 AM PDT 7:28 PM PDT
Nautical Twilight 6:21 AM PDT 7:59 PM PDT
Astronomical Twilight 5:50 AM PDT 8:31 PM PDT
Moon 6:21 AM PDT (3/10) 6:15 PM PDT (3/10)
Length of Visible Light 12h 37m
Length of Day
11h 43m
Waning Crescent, 1% of the Moon is Illuminated
Mar 10
Waning Crescent
Mar 11
New
Mar 19
First Quarter
Mar 27
Full
Apr 2
Last Quarter

Hourly Weather History & Observations

Time (PDT) Temp. Windchill Dew Point Humidity Pressure Visibility Wind Dir Wind Speed Gust Speed Precip Events Conditions
12:53 AM 25.0 °F 18.1 °F 12.0 °F 58% 30.38 in 10.0 mi Variable 5.8 mph - N/A   Clear
1:53 AM 21.9 °F - 12.0 °F 66% 30.41 in 10.0 mi Calm Calm - N/A   Clear
3:53 AM 21.0 °F - 10.9 °F 65% 30.38 in 10.0 mi Calm Calm - N/A   Clear
5:53 AM 17.1 °F - 10.0 °F 74% 30.43 in 10.0 mi Calm Calm - N/A   Clear
6:53 AM 15.1 °F 7.7 °F 9.0 °F 77% 30.44 in 10.0 mi South 4.6 mph - N/A   Clear
7:53 AM 14.0 °F 6.5 °F 8.1 °F 77% 30.50 in 10.0 mi South 4.6 mph - N/A   Clear
8:53 AM 21.0 °F 14.6 °F 10.9 °F 65% 30.48 in 10.0 mi South 4.6 mph - N/A   Clear
9:53 AM 30.9 °F 27.5 °F 12.9 °F 47% 30.44 in 10.0 mi South 3.5 mph - N/A   Clear
10:53 AM 41.0 °F 39.0 °F 7.0 °F 25% 30.42 in 10.0 mi NNE 3.5 mph - N/A   Clear
11:53 AM 44.1 °F 39.0 °F 14.0 °F 30% 30.37 in 10.0 mi NE 9.2 mph - N/A   Clear
12:53 PM 48.0 °F - 12.0 °F 24% 30.34 in 10.0 mi NNE 4.6 mph - N/A   Clear
1:53 PM 48.0 °F - 15.1 °F 27% 30.32 in 10.0 mi NNE 6.9 mph - N/A   Clear
2:53 PM 48.9 °F - 14.0 °F 25% 30.32 in 10.0 mi NE 3.5 mph - N/A   Clear
3:53 PM 48.9 °F - 15.1 °F 26% 30.33 in 10.0 mi NNE 8.1 mph - N/A   Clear
4:53 PM 50.0 °F - 12.0 °F 22% 30.34 in 10.0 mi NNE 5.8 mph - N/A   Clear
5:53 PM 45.0 °F - 17.1 °F 33% 30.36 in 10.0 mi Calm Calm - N/A   Clear
6:53 PM 39.9 °F - 19.0 °F 43% 30.39 in 10.0 mi Calm Calm - N/A   Clear
7:53 PM 36.0 °F - 19.9 °F 52% 30.43 in 10.0 mi Calm Calm - N/A   Clear
8:53 PM 33.1 °F - 19.9 °F 59% 30.42 in 10.0 mi Calm Calm - N/A   Clear
9:53 PM 30.0 °F 26.5 °F 19.0 °F 64% 30.40 in 10.0 mi SSW 3.5 mph - N/A   Clear
10:53 PM 28.9 °F - 19.0 °F 67% 30.37 in 10.0 mi Calm Calm - N/A   Clear
11:53 PM 28.0 °F 21.7 °F 18.0 °F 66% 30.36 in 10.0 mi South 5.8 mph - N/A   Clear
12:53 AM 28.0 °F 22.8 °F 18.0 °F 66% 30.34 in 10.0 mi South 4.6 mph - N/A   Clear